• In Hungary
  • List of Countries
  • For 7 days
  • Water Temperature
  • Satellite Maps
  • Weather Map
  • News
  • Weather Widgets
  • user-avatar
    Login

    Hourly Weather Orehovka

    Today, 20 May, Sunday

    Time Temperature Precipitation Wind Pressure Humidity
    00:00 +14°C° 0 mm 3 mps 743 mmHg 91%
    01:00 +13°C° 0 mm 3 mps 743 mmHg 92%
    02:00 +13°C° 0 mm 3 mps 743 mmHg 94%
    03:00 +14°C° 0 mm 2 mps 743 mmHg 95%
    04:00 +13°C° 0.2 mm 3 mps 743 mmHg 94%
    05:00 +14°C° 0.2 mm 3 mps 744 mmHg 93%
    06:00 +14°C° 0.2 mm 3 mps 744 mmHg 92%
    07:00 +14°C° 0.2 mm 4 mps 745 mmHg 91%
    08:00 +13°C° 0.2 mm 4 mps 746 mmHg 90%
    09:00 +13°C° 0 mm 5 mps 747 mmHg 88%
    10:00 +13°C° 0.1 mm 5 mps 747 mmHg 85%
    11:00 +12°C° 0.1 mm 5 mps 748 mmHg 83%
    12:00 +12°C° 0.1 mm 5 mps 749 mmHg 80%
    13:00 +12°C° 0 mm 5 mps 750 mmHg 77%
    14:00 +12°C° 0 mm 4 mps 751 mmHg 73%
    15:00 +12°C° 0 mm 4 mps 751 mmHg 70%
    16:00 +11°C° 0 mm 4 mps 752 mmHg 69%
    17:00 +11°C° 0 mm 4 mps 752 mmHg 69%
    18:00 +10°C° 0 mm 4 mps 753 mmHg 68%
    19:00 +10°C° 0 mm 3 mps 753 mmHg 70%
    20:00 +9°C° 0 mm 3 mps 754 mmHg 71%
    21:00 +8°C° 0 mm 2 mps 754 mmHg 72%
    22:00 +7°C° 0 mm 2 mps 755 mmHg 76%
    23:00 +6°C° 0 mm 2 mps 755 mmHg 80%

    Tomorrow, 21 May, Monday

    Time Temperature Precipitation Wind Pressure Humidity
    00:00 +5°C° 0 mm 2 mps 755 mmHg 84%
    01:00 +5°C° 0 mm 2 mps 756 mmHg 85%
    02:00 +5°C° 0 mm 2 mps 756 mmHg 86%
    03:00 +5°C° 0 mm 2 mps 756 mmHg 87%
    04:00 +6°C° 0 mm 2 mps 757 mmHg 82%
    05:00 +7°C° 0 mm 2 mps 757 mmHg 77%
    06:00 +8°C° 0 mm 2 mps 758 mmHg 72%
    07:00 +10°C° 0 mm 2 mps 758 mmHg 64%
    08:00 +12°C° 0 mm 3 mps 759 mmHg 55%
    09:00 +14°C° 0 mm 3 mps 759 mmHg 46%
    10:00 +16°C° 0 mm 3 mps 759 mmHg 43%
    11:00 +17°C° 0 mm 3 mps 759 mmHg 40%
    12:00 +18°C° 0 mm 3 mps 759 mmHg 38%
    13:00 +19°C° 0 mm 3 mps 759 mmHg 38%
    14:00 +19°C° 0 mm 3 mps 759 mmHg 37%
    15:00 +20°C° 0 mm 3 mps 759 mmHg 37%
    16:00 +19°C° 0 mm 3 mps 759 mmHg 40%
    17:00 +19°C° 0 mm 2 mps 760 mmHg 44%
    18:00 +19°C° 0 mm 2 mps 760 mmHg 47%
    19:00 +16°C° 0 mm 1 mps 760 mmHg 52%
    20:00 +14°C° 0 mm 1 mps 761 mmHg 57%
    21:00 +12°C° 0 mm 1 mps 761 mmHg 63%
    22:00 +10°C° 0 mm 0 mps 761 mmHg 64%
    23:00 +10°C° 0 mm 0 mps 762 mmHg 66%

    Day after tomorrow, 22 May, Tuesday

    Time Temperature Precipitation Wind Pressure Humidity
    00:00 +9°C° 0 mm 0 mps 762 mmHg 68%
    01:00 +9°C° 0 mm 0 mps 762 mmHg 69%
    02:00 +9°C° 0 mm 0 mps 762 mmHg 70%
    03:00 +8°C° 0 mm 0 mps 762 mmHg 71%
    04:00 +10°C° 0 mm 0 mps 763 mmHg 68%
    05:00 +11°C° 0 mm 0 mps 763 mmHg 64%
    06:00 +13°C° 0 mm 0 mps 763 mmHg 61%
    07:00 +16°C° 0 mm 1 mps 763 mmHg 54%
    08:00 +19°C° 0 mm 1 mps 763 mmHg 48%
    09:00 +21°C° 0 mm 1 mps 764 mmHg 42%
    10:00 +22°C° 0 mm 1 mps 764 mmHg 40%
    11:00 +24°C° 0 mm 1 mps 763 mmHg 37%
    12:00 +25°C° 0 mm 1 mps 763 mmHg 35%
    13:00 +25°C° 0 mm 1 mps 763 mmHg 34%
    14:00 +25°C° 0 mm 1 mps 763 mmHg 33%
    15:00 +25°C° 0 mm 1 mps 762 mmHg 33%
    16:00 +24°C° 0 mm 1 mps 762 mmHg 37%
    17:00 +24°C° 0 mm 1 mps 762 mmHg 41%
    18:00 +23°C° 0 mm 1 mps 761 mmHg 45%
    19:00 +21°C° 0 mm 1 mps 762 mmHg 51%
    20:00 +18°C° 0 mm 1 mps 762 mmHg 56%
    21:00 +15°C° 0 mm 2 mps 762 mmHg 62%
    22:00 +14°C° 0 mm 2 mps 762 mmHg 64%
    23:00 +13°C° 0 mm 2 mps 762 mmHg 66%

    23 May, Wednesday

    Time Temperature Precipitation Wind Pressure Humidity
    00:00 +12°C° 0 mm 2 mps 762 mmHg 68%
    01:00 +12°C° 0 mm 2 mps 762 mmHg 69%
    02:00 +10°C° 0 mm 2 mps 762 mmHg 71%
    03:00 +10°C° 0 mm 2 mps 762 mmHg 72%
    04:00 +12°C° 0 mm 2 mps 761 mmHg 69%
    05:00 +13°C° 0 mm 2 mps 761 mmHg 66%
    06:00 +14°C° 0 mm 2 mps 761 mmHg 63%
    07:00 +16°C° 0 mm 3 mps 761 mmHg 57%
    08:00 +18°C° 0 mm 3 mps 761 mmHg 51%
    09:00 +20°C° 0 mm 4 mps 761 mmHg 45%
    10:00 +21°C° 0 mm 4 mps 760 mmHg 43%
    11:00 +22°C° 0 mm 4 mps 760 mmHg 41%
    12:00 +23°C° 0 mm 4 mps 760 mmHg 39%
    13:00 +23°C° 0 mm 4 mps 759 mmHg 40%
    14:00 +25°C° 0 mm 4 mps 759 mmHg 40%
    15:00 +25°C° 0 mm 4 mps 758 mmHg 41%
    16:00 +24°C° 0 mm 3 mps 758 mmHg 45%
    17:00 +24°C° 0 mm 3 mps 757 mmHg 49%
    18:00 +22°C° 0 mm 3 mps 757 mmHg 52%
    19:00 +20°C° 0 mm 3 mps 756 mmHg 58%
    20:00 +19°C° 0 mm 3 mps 756 mmHg 64%
    21:00 +17°C° 0 mm 2 mps 756 mmHg 70%
    22:00 +16°C° 0 mm 2 mps 756 mmHg 73%
    23:00 +16°C° 0 mm 2 mps 755 mmHg 76%

    24 May, Thursday

    Time Temperature Precipitation Wind Pressure Humidity
    00:00 +15°C° 0 mm 2 mps 755 mmHg 80%
    01:00 +14°C° 0 mm 2 mps 755 mmHg 82%
    02:00 +14°C° 0 mm 2 mps 755 mmHg 85%
    03:00 +14°C° 0 mm 2 mps 754 mmHg 87%
    04:00 +15°C° 0 mm 2 mps 754 mmHg 83%
    05:00 +16°C° 0 mm 2 mps 754 mmHg 78%
    06:00 +17°C° 0 mm 2 mps 754 mmHg 73%
    07:00 +19°C° 0.1 mm 2 mps 753 mmHg 69%
    08:00 +20°C° 0.1 mm 2 mps 753 mmHg 65%
    09:00 +23°C° 0.1 mm 2 mps 753 mmHg 60%
    10:00 +24°C° 0.1 mm 2 mps 753 mmHg 57%
    11:00 +25°C° 0.1 mm 3 mps 752 mmHg 54%
    12:00 +26°C° 0.1 mm 3 mps 752 mmHg 51%
    13:00 +25°C° 1.7 mm 3 mps 752 mmHg 57%
    14:00 +24°C° 1.7 mm 2 mps 752 mmHg 62%
    15:00 +24°C° 1.7 mm 2 mps 752 mmHg 67%
    16:00 +21°C° 0.7 mm 3 mps 752 mmHg 72%
    17:00 +20°C° 0.7 mm 3 mps 752 mmHg 77%
    18:00 +19°C° 0.7 mm 4 mps 752 mmHg 83%
    19:00 +17°C° 0.1 mm 4 mps 753 mmHg 84%
    20:00 +15°C° 0.1 mm 5 mps 753 mmHg 85%
    21:00 +13°C° 0.1 mm 5 mps 754 mmHg 86%
    22:00 +12°C° 0 mm 5 mps 754 mmHg 84%
    23:00 +10°C° 0 mm 5 mps 755 mmHg 82%

    25 May, Friday

    Time Temperature Precipitation Wind Pressure Humidity
    00:00 +9°C° 0 mm 5 mps 755 mmHg 80%
    01:00 +9°C° 0 mm 5 mps 756 mmHg 78%
    02:00 +8°C° 0 mm 5 mps 756 mmHg 75%
    03:00 +8°C° 0 mm 5 mps 757 mmHg 72%
    04:00 +7°C° 0 mm 6 mps 757 mmHg 69%
    05:00 +7°C° 0 mm 6 mps 758 mmHg 66%
    06:00 +7°C° 0 mm 6 mps 759 mmHg 63%
    07:00 +8°C° 0 mm 6 mps 759 mmHg 58%
    08:00 +9°C° 0 mm 6 mps 759 mmHg 54%
    09:00 +10°C° 0 mm 6 mps 760 mmHg 50%
    10:00 +11°C° 0 mm 6 mps 760 mmHg 48%
    11:00 +11°C° 0 mm 6 mps 760 mmHg 45%
    12:00 +13°C° 0 mm 6 mps 760 mmHg 43%
    13:00 +13°C° 0 mm 6 mps 760 mmHg 42%
    14:00 +14°C° 0 mm 5 mps 760 mmHg 42%
    15:00 +14°C° 0 mm 5 mps 760 mmHg 41%
    16:00 +14°C° 0 mm 5 mps 761 mmHg 43%
    17:00 +13°C° 0 mm 5 mps 761 mmHg 45%
    18:00 +13°C° 0 mm 4 mps 761 mmHg 47%
    19:00 +11°C° 0 mm 4 mps 761 mmHg 52%
    20:00 +9°C° 0 mm 3 mps 762 mmHg 57%
    21:00 +7°C° 0 mm 2 mps 762 mmHg 62%
    22:00 +7°C° 0 mm 2 mps 763 mmHg 62%
    23:00 +6°C° 0 mm 2 mps 763 mmHg 62%
    Show more